User: anonymous   Login
Location: Coupvray
(48.8929°N, 2.7967°E)
Time: 11:36:37
(UTC+00:00)
Language:

COSMOS 1275 DEB - Orbit

View from above orbital plane
View from above orbital plane
View from above satellite
View from above satellite

Ground track
Ground track

The orbit data is extracted from the following two-line orbital elements,

1 39936U 81053MW  21011.29037504  .00000373  00000-0  31027-3 0  9991
2 39936  83.1477 216.0536 0062154  98.8658 261.9548 13.85060114323694
Epoch (UTC): 11 January 2021 06:58:08
Eccentricity: 0.0062154
inclination: 83.1477°
perigee height: 900 km
apogee height: 991 km
right ascension of ascending node: 216.0536°
argument of perigee: 98.8658°
revolutions per day: 13.85060114
mean anomaly at epoch: 261.9548°
orbit number at epoch: 32369

The dashed part of the orbit path shows where the satellite is in the earth's shadow,  

DLR